Shelbyville, IN

1:32 PM EST on December 08, 2019 (GMT -0500)
Shelbyville Municipal

Weather History for KGEZ - October, 2019

Change the Weather History Date:

Wednesday, October 2, 2019

  Actual Average Record
Temperature  
Mean Temperature 80 °F 59 °F  
Max Temperature 91 °F 71 °F 91 °F (2019)
Min Temperature 68 °F 47 °F 30 °F (2003)
Degree Days  
Heating Degree Days 0 7  
Month to date heating degree days 0 14  
Since 1 July heating degree days 3 99  
Cooling Degree Days 15 1  
Month to date cooling degree days 29 2  
Year to date cooling degree days 1323 901  
Growing Degree Days 30 (Base 50)    
Moisture  
Dew Point 65 °F    
Average Humidity 61    
Maximum Humidity 81    
Minimum Humidity 41    
Precipitation  
Precipitation 0.00 in 0.12 in 0.31 in (2010)
Month to date precipitation 0.00 0.24  
Year to date precipitation 32.21 33.69  
Sea Level Pressure  
Sea Level Pressure 29.93 in    
Wind  
Wind Speed 8 mph (SW)    
Max Wind Speed 18 mph    
Max Gust Speed 28 mph    
Visibility 10 miles    
Events      
T = Trace of Precipitation, MM = Missing Value Source: NWS Daily Summary

Daily Weather History Graph

Daily Weather History Graph

Search for Another Location

Airport or City:

Astronomy

Oct. 02, 2019 Rise Set
Actual Time 7:40 AM EDT 7:24 PM EDT
Civil Twilight 7:13 AM EDT 7:51 PM EDT
Nautical Twilight 6:42 AM EDT 8:22 PM EDT
Astronomical Twilight 6:10 AM EDT 8:53 PM EDT
Moon 12:03 PM EDT (10/2) 10:18 PM EDT (10/2)
Length of Visible Light 12h 37m
Length of Day
11h 44m
Waxing Crescent, 20% of the Moon is Illuminated
Oct 2
Waxing Crescent
Oct 5
First Quarter
Oct 13
Full
Oct 21
Last Quarter
Oct 27
New

Hourly Weather History & Observations

Time (EDT) Temp. Heat Index Dew Point Humidity Pressure Visibility Wind Dir Wind Speed Gust Speed Precip Events Conditions
12:53 AM 71.1 °F - 63.0 °F 75% 29.94 in 10.0 mi South 6.9 mph - N/A   Clear
1:53 AM 71.1 °F - 63.0 °F 75% 29.94 in 10.0 mi SSW 5.8 mph - N/A   Clear
2:53 AM 71.1 °F - 63.0 °F 75% 29.94 in 10.0 mi South 5.8 mph - N/A   Clear
3:53 AM 69.1 °F - 62.1 °F 78% 29.93 in 10.0 mi South 4.6 mph - N/A   Clear
4:53 AM 70.0 °F - 63.0 °F 78% 29.92 in 10.0 mi South 4.6 mph - N/A   Clear
5:53 AM 68.0 °F - 63.0 °F 84% 29.93 in 10.0 mi SSW 5.8 mph - N/A   Clear
6:53 AM 69.1 °F - 63.0 °F 81% 29.94 in 10.0 mi South 6.9 mph - N/A   Clear
7:53 AM 69.1 °F - 63.0 °F 81% 29.96 in 10.0 mi South 5.8 mph - N/A   Clear
8:53 AM 73.0 °F - 64.9 °F 76% 29.97 in 10.0 mi South 6.9 mph - N/A   Clear
9:53 AM 77.0 °F - 66.0 °F 69% 29.97 in 10.0 mi SSW 9.2 mph - N/A   Clear
10:53 AM 82.9 °F 85.4 °F 66.9 °F 58% 29.95 in 10.0 mi WSW 9.2 mph - N/A   Clear
11:53 AM 87.1 °F 88.9 °F 64.9 °F 48% 29.94 in 10.0 mi WSW 13.8 mph 24.2 mph N/A   Clear
12:53 PM 88.0 °F 90.3 °F 66.0 °F 48% 29.94 in 10.0 mi WSW 12.7 mph 23.0 mph N/A   Clear
1:53 PM 90.0 °F 92.4 °F 66.0 °F 45% 29.92 in 10.0 mi WSW 16.1 mph 26.5 mph N/A   Scattered Clouds
2:53 PM 89.1 °F 91.3 °F 66.0 °F 46% 29.90 in 10.0 mi SW 10.4 mph 23.0 mph N/A   Partly Cloudy
3:53 PM 91.0 °F 93.8 °F 66.0 °F 44% 29.90 in 10.0 mi WSW 15.0 mph 26.5 mph N/A   Partly Cloudy
4:53 PM 91.0 °F 93.0 °F 64.9 °F 42% 29.88 in 10.0 mi WSW 9.2 mph 21.9 mph N/A   Partly Cloudy
5:53 PM 90.0 °F 91.7 °F 64.9 °F 43% 29.88 in 10.0 mi WSW 13.8 mph 23.0 mph N/A   Partly Cloudy
6:53 PM 87.1 °F 88.3 °F 64.0 °F 46% 29.90 in 10.0 mi WSW 10.4 mph - N/A   Partly Cloudy
7:53 PM 82.0 °F 83.8 °F 64.9 °F 56% 29.91 in 10.0 mi SSW 6.9 mph - N/A   Partly Cloudy
8:53 PM 79.0 °F - 64.9 °F 62% 29.91 in 10.0 mi SSW 5.8 mph - N/A   Scattered Clouds
9:53 PM 78.1 °F - 64.9 °F 64% 29.92 in 10.0 mi Calm Calm - N/A   Scattered Clouds
10:53 PM 73.9 °F - 64.9 °F 73% 29.91 in 10.0 mi North 4.6 mph - N/A   Partly Cloudy
11:53 PM 73.0 °F - 64.9 °F 76% 29.91 in 10.0 mi SE 3.5 mph - N/A   Clear